• In Latvia
  • List of Countries
  • For 7 days
  • Water Temperature
  • Satellite Maps
  • Weather Map
  • Weather Widgets
  • user-avatar
    Login

    Hourly Weather Ventspils

    Today, 23 February, Friday

    Time Temperature Precipitation Wind Pressure Humidity
    00:00 -14°C° 0 mm 4 mps 771 mmHg 88%
    01:00 -15°C° 0 mm 4 mps 771 mmHg 88%
    02:00 -15°C° 0 mm 4 mps 770 mmHg 87%
    03:00 -15°C° 0 mm 4 mps 770 mmHg 87%
    04:00 -15°C° 0 mm 5 mps 770 mmHg 87%
    05:00 -15°C° 0.1 mm 5 mps 769 mmHg 87%
    06:00 -15°C° 0.1 mm 5 mps 769 mmHg 86%
    07:00 -14°C° 0 mm 6 mps 769 mmHg 83%
    08:00 -12°C° 0.4 mm 6 mps 768 mmHg 84%
    09:00 -11°C° 0.4 mm 6 mps 768 mmHg 84%
    10:00 -10°C° 0.4 mm 6 mps 768 mmHg 84%
    11:00 -10°C° 0.6 mm 6 mps 768 mmHg 86%
    12:00 -9°C° 0.6 mm 6 mps 767 mmHg 88%
    13:00 -8°C° 0.6 mm 5 mps 767 mmHg 90%
    14:00 -9°C° 0.3 mm 6 mps 767 mmHg 89%
    15:00 -9°C° 0.3 mm 6 mps 767 mmHg 89%
    16:00 -9°C° 0.3 mm 6 mps 767 mmHg 88%
    17:00 -9°C° 0.2 mm 7 mps 767 mmHg 89%
    18:00 -11°C° 0.2 mm 7 mps 767 mmHg 90%
    19:00 -11°C° 0.2 mm 8 mps 768 mmHg 91%
    20:00 -12°C° 0.1 mm 8 mps 768 mmHg 90%
    21:00 -12°C° 0.1 mm 8 mps 769 mmHg 89%
    22:00 -12°C° 0.1 mm 8 mps 770 mmHg 88%
    23:00 -12°C° 0.1 mm 8 mps 770 mmHg 88%

    Tomorrow, 24 February, Saturday

    Time Temperature Precipitation Wind Pressure Humidity
    00:00 -13°C° 0.1 mm 8 mps 771 mmHg 88%
    01:00 -13°C° 0.1 mm 7 mps 772 mmHg 87%
    02:00 -13°C° 0 mm 7 mps 772 mmHg 86%
    03:00 -13°C° 0 mm 7 mps 773 mmHg 86%
    04:00 -13°C° 0 mm 7 mps 773 mmHg 85%
    05:00 -14°C° 0 mm 7 mps 774 mmHg 85%
    06:00 -14°C° 0 mm 6 mps 774 mmHg 86%
    07:00 -15°C° 0 mm 6 mps 775 mmHg 86%
    08:00 -14°C° 0 mm 6 mps 775 mmHg 83%
    09:00 -12°C° 0 mm 6 mps 775 mmHg 80%
    10:00 -12°C° 0 mm 6 mps 776 mmHg 77%
    11:00 -12°C° 0 mm 6 mps 776 mmHg 76%
    12:00 -12°C° 0 mm 6 mps 776 mmHg 76%
    13:00 -11°C° 0 mm 6 mps 776 mmHg 75%
    14:00 -12°C° 0 mm 6 mps 776 mmHg 77%
    15:00 -12°C° 0 mm 6 mps 776 mmHg 79%
    16:00 -12°C° 0 mm 6 mps 775 mmHg 80%
    17:00 -14°C° 0 mm 6 mps 776 mmHg 82%
    18:00 -14°C° 0 mm 6 mps 776 mmHg 85%
    19:00 -15°C° 0 mm 6 mps 776 mmHg 87%
    20:00 -15°C° 0 mm 6 mps 776 mmHg 87%
    21:00 -15°C° 0 mm 6 mps 776 mmHg 88%
    22:00 -15°C° 0 mm 6 mps 776 mmHg 88%
    23:00 -14°C° 0 mm 5 mps 776 mmHg 88%

    Day after tomorrow, 25 February, Sunday

    Time Temperature Precipitation Wind Pressure Humidity
    00:00 -15°C° 0 mm 5 mps 776 mmHg 88%
    01:00 -15°C° 0 mm 5 mps 777 mmHg 89%
    02:00 -15°C° 0 mm 5 mps 776 mmHg 89%
    03:00 -17°C° 0 mm 5 mps 776 mmHg 89%
    04:00 -17°C° 0 mm 5 mps 776 mmHg 89%
    05:00 -17°C° 0 mm 5 mps 776 mmHg 89%
    06:00 -17°C° 0 mm 6 mps 777 mmHg 89%
    07:00 -17°C° 0 mm 6 mps 777 mmHg 88%
    08:00 -16°C° 0 mm 6 mps 777 mmHg 85%
    09:00 -15°C° 0 mm 6 mps 777 mmHg 82%
    10:00 -15°C° 0 mm 6 mps 777 mmHg 78%
    11:00 -14°C° 0 mm 6 mps 777 mmHg 78%
    12:00 -14°C° 0 mm 6 mps 777 mmHg 77%
    13:00 -14°C° 0 mm 6 mps 776 mmHg 76%
    14:00 -14°C° 0 mm 6 mps 776 mmHg 78%
    15:00 -14°C° 0 mm 6 mps 776 mmHg 79%
    16:00 -14°C° 0 mm 6 mps 776 mmHg 80%
    17:00 -13°C° 0 mm 5 mps 776 mmHg 82%
    18:00 -13°C° 0 mm 5 mps 776 mmHg 84%
    19:00 -13°C° 0 mm 5 mps 775 mmHg 87%
    20:00 -13°C° 0 mm 5 mps 775 mmHg 87%
    21:00 -13°C° 0 mm 5 mps 776 mmHg 88%
    22:00 -13°C° 0 mm 5 mps 776 mmHg 89%
    23:00 -14°C° 0 mm 5 mps 776 mmHg 89%

    26 February, Monday

    Time Temperature Precipitation Wind Pressure Humidity
    00:00 -14°C° 0 mm 4 mps 775 mmHg 90%
    01:00 -14°C° 0 mm 4 mps 775 mmHg 90%
    02:00 -14°C° 0 mm 4 mps 775 mmHg 90%
    03:00 -14°C° 0 mm 4 mps 775 mmHg 89%
    04:00 -14°C° 0 mm 4 mps 775 mmHg 89%
    05:00 -14°C° 0 mm 4 mps 775 mmHg 89%
    06:00 -14°C° 0 mm 5 mps 774 mmHg 88%
    07:00 -14°C° 0 mm 5 mps 774 mmHg 88%
    08:00 -13°C° 0 mm 5 mps 774 mmHg 84%
    09:00 -12°C° 0 mm 5 mps 774 mmHg 80%
    10:00 -11°C° 0 mm 5 mps 774 mmHg 76%
    11:00 -11°C° 0.1 mm 5 mps 774 mmHg 75%
    12:00 -11°C° 0.1 mm 5 mps 774 mmHg 73%
    13:00 -10°C° 0.1 mm 5 mps 773 mmHg 72%
    14:00 -11°C° 0 mm 5 mps 773 mmHg 73%
    15:00 -10°C° 0 mm 4 mps 773 mmHg 75%
    16:00 -10°C° 0 mm 4 mps 773 mmHg 76%
    17:00 -11°C° 0 mm 4 mps 773 mmHg 80%
    18:00 -12°C° 0 mm 4 mps 773 mmHg 83%
    19:00 -14°C° 0 mm 5 mps 772 mmHg 86%
    20:00 -13°C° 0.1 mm 5 mps 772 mmHg 85%
    21:00 -13°C° 0.1 mm 5 mps 772 mmHg 84%
    22:00 -14°C° 0.1 mm 6 mps 772 mmHg 82%
    23:00 -15°C° 0 mm 6 mps 772 mmHg 82%

    27 February, Tuesday

    Time Temperature Precipitation Wind Pressure Humidity
    00:00 -15°C° 0 mm 7 mps 772 mmHg 81%
    01:00 -17°C° 0 mm 7 mps 772 mmHg 80%
    02:00 -18°C° 0 mm 7 mps 772 mmHg 82%
    03:00 -18°C° 0 mm 8 mps 772 mmHg 83%
    04:00 -19°C° 0 mm 8 mps 772 mmHg 84%
    05:00 -19°C° 0.1 mm 8 mps 772 mmHg 84%
    06:00 -19°C° 0.1 mm 8 mps 773 mmHg 84%
    07:00 -21°C° 0.1 mm 9 mps 773 mmHg 83%
    08:00 -21°C° 0.1 mm 9 mps 773 mmHg 82%
    09:00 -21°C° 0.1 mm 9 mps 773 mmHg 81%
    10:00 -20°C° 0.1 mm 9 mps 774 mmHg 79%
    11:00 -20°C° 0.1 mm 9 mps 774 mmHg 78%
    12:00 -20°C° 0.1 mm 9 mps 774 mmHg 78%
    13:00 -20°C° 0.1 mm 9 mps 774 mmHg 77%
    14:00 -19°C° 0.1 mm 8 mps 774 mmHg 78%
    15:00 -21°C° 0.1 mm 8 mps 774 mmHg 79%
    16:00 -21°C° 0.1 mm 8 mps 774 mmHg 80%
    17:00 -22°C° 0.1 mm 8 mps 775 mmHg 82%
    18:00 -22°C° 0.1 mm 8 mps 775 mmHg 84%
    19:00 -23°C° 0.1 mm 8 mps 775 mmHg 85%
    20:00 -23°C° 0.1 mm 8 mps 776 mmHg 85%
    21:00 -23°C° 0.1 mm 8 mps 776 mmHg 85%
    22:00 -24°C° 0.1 mm 8 mps 776 mmHg 85%
    23:00 -24°C° 0.1 mm 8 mps 776 mmHg 86%

    28 February, Wednesday

    Time Temperature Precipitation Wind Pressure Humidity
    00:00 -24°C° 0.1 mm 7 mps 776 mmHg 87%
    01:00 -24°C° 0.1 mm 7 mps 777 mmHg 88%
    02:00 -24°C° 0.1 mm 7 mps 777 mmHg 89%
    03:00 -24°C° 0.1 mm 7 mps 776 mmHg 89%
    04:00 -24°C° 0.1 mm 7 mps 776 mmHg 90%
    05:00 -24°C° 0.1 mm 7 mps 777 mmHg 90%
    06:00 -24°C° 0.1 mm 7 mps 777 mmHg 90%
    07:00 -24°C° 0.1 mm 8 mps 777 mmHg 90%
    08:00 -23°C° 0 mm 8 mps 777 mmHg 86%
    09:00 -22°C° 0 mm 8 mps 777 mmHg 83%
    10:00 -21°C° 0 mm 8 mps 777 mmHg 80%
    11:00 -19°C° 0 mm 8 mps 777 mmHg 79%
    12:00 -19°C° 0 mm 7 mps 777 mmHg 79%
    13:00 -18°C° 0 mm 7 mps 777 mmHg 78%
    14:00 -19°C° 0 mm 7 mps 776 mmHg 80%
    15:00 -19°C° 0 mm 7 mps 776 mmHg 81%
    16:00 -19°C° 0 mm 7 mps 776 mmHg 82%
    17:00 -19°C° 0 mm 7 mps 775 mmHg 85%
    18:00 -18°C° 0 mm 6 mps 775 mmHg 87%
    19:00 -20°C° 0 mm 6 mps 775 mmHg 89%
    20:00 -20°C° 0 mm 6 mps 775 mmHg 90%
    21:00 -21°C° 0 mm 6 mps 775 mmHg 90%
    22:00 -20°C° 0 mm 5 mps 775 mmHg 91%
    23:00 -20°C° 0 mm 5 mps 775 mmHg 92%
    Show more